| time (UTC) | temp C | wind direction | speed KPH | gust KPH | rain 1hr cm | rain 24hr cm | rain mn cm | humidity % | barometer mb |
| 20260831024504 | 19 | 138 | 6.4 | 14.5 | 0.00 | 0.79 | 0.79 | 92 | 1014.3 |
| 20260831023006 | 19 | 159 | 4.8 | 14.5 | 0.00 | 0.79 | 0.79 | 92 | 1014.3 |
| 20260831021503 | 19 | 142 | 6.4 | 17.7 | 0.00 | 0.79 | 0.79 | 92 | 1014.3 |
| 20260831020001 | 19 | 155 | 6.4 | 19.3 | 0.00 | 0.79 | 0.79 | 92 | 1014.4 |
| 20260831014501 | 19 | 171 | 11.3 | 19.3 | 0.00 | 0.79 | 0.79 | 92 | 1014.6 |
| 20260831013108 | 19 | 185 | 11.3 | 19.3 | 0.00 | 0.79 | 0.79 | 92 | 1014.6 |
| 20260831011559 | 19 | 156 | 11.3 | 19.3 | 0.00 | 0.79 | 0.79 | 92 | 1014.6 |
| 20260831010059 | 19 | 178 | 8.0 | 17.7 | 0.00 | 0.79 | 0.79 | 92 | 1014.5 |
| 20260831004603 | 19 | 134 | 9.7 | 20.9 | 0.00 | 0.79 | 0.79 | 92 | 1014.5 |
| 20260831003057 | 19 | 192 | 8.0 | 19.3 | 0.00 | 0.79 | 0.79 | 92 | 1014.5 |
| 20260831001556 | 19 | 153 | 8.0 | 25.7 | 0.00 | 0.79 | 0.79 | 92 | 1014.7 |
| 20260831000056 | 19 | 165 | 4.8 | 19.3 | 0.00 | 0.79 | 0.79 | 92 | 1014.7 |
| 20260830234556 | 19 | 171 | 3.2 | 16.1 | 0.00 | 0.79 | 0.79 | 92 | 1014.7 |
| 20260830233055 | 19 | 231 | 4.8 | 12.9 | 0.00 | 0.79 | 0.79 | 92 | 1014.7 |
| 20260830231601 | 19 | 158 | 6.4 | 16.1 | 0.00 | 0.79 | 0.79 | 92 | 1014.8 |
| 20260830230055 | 19 | 213 | 4.8 | 9.7 | 0.00 | 0.79 | 0.79 | 92 | 1015.1 |
| 20260830224558 | 19 | 165 | 3.2 | 14.5 | 0.03 | 0.79 | 0.79 | 92 | 1015.2 |
| 20260830223055 | 19 | 223 | 4.8 | 19.3 | 0.05 | 0.79 | 0.79 | 92 | 1015.3 |
| 20260830221602 | 18 | 158 | 4.8 | 17.7 | 0.05 | 0.79 | 0.79 | 92 | 1015.4 |
| 20260830220055 | 18 | 192 | 4.8 | 9.7 | 0.05 | 0.79 | 0.79 | 92 | 1015.2 |
| 20260830214556 | 18 | 193 | 3.2 | 11.3 | 0.03 | 0.76 | 0.76 | 91 | 1015.1 |
| 20260830213051 | 18 | 211 | 1.6 | 11.3 | 0.28 | 0.71 | 0.71 | 91 | 1015.3 |
| 20260830211555 | 18 | 215 | 3.2 | 8.0 | 0.28 | 0.71 | 0.71 | 91 | 1015.2 |
| 20260830210050 | 18 | 228 | 1.6 | 11.3 | 0.28 | 0.71 | 0.71 | 91 | 1014.9 |
| 20260830204549 | 18 | 232 | 3.2 | 9.7 | 0.28 | 0.71 | 0.71 | 91 | 1014.8 |
| 20260830203047 | 18 | 169 | 4.8 | 14.5 | 0.00 | 0.46 | 0.46 | 92 | 1014.8 |
| 20260830201547 | 18 | 159 | 3.2 | 19.3 | 0.00 | 0.46 | 0.46 | 92 | 1014.8 |
| 20260830200048 | 18 | 204 | 3.2 | 12.9 | 0.00 | 0.46 | 0.46 | 92 | 1014.8 |
| 20260830194544 | 18 | 169 | 4.8 | 14.5 | 0.00 | 0.46 | 0.46 | 92 | 1015.0 |
| 20260830193046 | 18 | 181 | 4.8 | 12.9 | 0.00 | 0.46 | 0.46 | 93 | 1015.1 |
| 20260830191546 | 18 | 219 | 4.8 | 16.1 | 0.00 | 0.46 | 0.46 | 92 | 1015.1 |
| 20260830190041 | 18 | 170 | 4.8 | 12.9 | 0.00 | 0.46 | 0.46 | 92 | 1015.2 |
| 20260830184540 | 18 | 148 | 6.4 | 14.5 | 0.00 | 0.46 | 0.46 | 92 | 1015.1 |
| 20260830183037 | 18 | 176 | 3.2 | 6.4 | 0.00 | 0.46 | 0.46 | 92 | 1016.3 |
| 20260830181536 | 18 | 167 | 1.6 | 6.4 | 0.00 | 0.46 | 0.46 | 93 | 1016.1 |
| 20260830180051 | 18 | 146 | 4.8 | 9.7 | 0.00 | 0.46 | 0.46 | 92 | 1015.8 |
| 20260830174537 | 18 | 155 | 8.0 | 14.5 | 0.00 | 0.46 | 0.46 | 92 | 1015.7 |
| 20260830173048 | 18 | 150 | 6.4 | 11.3 | 0.00 | 0.46 | 0.46 | 92 | 1015.8 |
| 20260830171533 | 18 | 167 | 4.8 | 11.3 | 0.03 | 0.46 | 0.46 | 92 | 1016.2 |
| 20260830170030 | 18 | 167 | 4.8 | 9.7 | 0.05 | 0.46 | 0.46 | 92 | 1016.3 |
| 20260830164527 | 18 | 145 | 3.2 | 11.3 | 0.05 | 0.46 | 0.46 | 92 | 1016.5 |
| 20260830163025 | 18 | 152 | 6.4 | 14.5 | 0.08 | 0.46 | 0.46 | 92 | 1016.4 |
| 20260830161523 | 18 | 126 | 4.8 | 14.5 | 0.08 | 0.43 | 0.43 | 92 | 1016.5 |
| 20260830160021 | 17 | 175 | 6.4 | 12.9 | 0.08 | 0.41 | 0.41 | 92 | 1016.5 |
| 20260830154520 | 17 | 129 | 4.8 | 12.9 | 0.10 | 0.41 | 0.41 | 92 | 1016.8 |
| 20260830153017 | 17 | 188 | 1.6 | 11.3 | 0.10 | 0.38 | 0.38 | 92 | 1017.1 |
| 20260830151517 | 17 | 155 | 3.2 | 6.4 | 0.10 | 0.36 | 0.36 | 92 | 1017.3 |
| 20260830150026 | 17 | 184 | 1.6 | 12.9 | 0.08 | 0.33 | 0.33 | 91 | 1017.2 |
| 20260830144518 | 18 | 223 | 3.2 | 12.9 | 0.05 | 0.30 | 0.30 | 92 | 1017.3 |
| 20260830143014 | 18 | 175 | 4.8 | 14.5 | 0.03 | 0.28 | 0.28 | 91 | 1016.9 |
| 20260830141533 | 18 | 159 | 6.4 | 14.5 | 0.03 | 0.25 | 0.25 | 91 | 1016.8 |
| 20260830140012 | 18 | 126 | 9.7 | 14.5 | 0.05 | 0.25 | 0.25 | 91 | 1016.8 |
| 20260830134511 | 17 | 144 | 4.8 | 12.9 | 0.10 | 0.25 | 0.25 | 91 | 1017.1 |
| 20260830133009 | 17 | 146 | 4.8 | 11.3 | 0.15 | 0.25 | 0.25 | 91 | 1016.9 |
| 20260830131513 | 17 | 101 | 3.2 | 12.9 | 0.13 | 0.23 | 0.23 | 91 | 1017.1 |
| 20260830130007 | 18 | 119 | 8.0 | 12.9 | 0.10 | 0.20 | 0.20 | 91 | 1016.9 |
| 20260830124506 | 18 | 134 | 8.0 | 14.5 | 0.08 | 0.15 | 0.15 | 91 | 1017.1 |
| 20260830123012 | 18 | 171 | 0.0 | 6.4 | 0.05 | 0.10 | 0.10 | 91 | 1017.2 |
| 20260830121505 | 18 | 153 | 1.6 | 9.7 | 0.08 | 0.10 | 0.10 | 91 | 1017.1 |
| 20260830120005 | 17 | 138 | 6.4 | 11.3 | 0.08 | 0.10 | 0.10 | 91 | 1016.4 |
| 20260830114508 | 17 | 150 | 3.2 | 9.7 | 0.08 | 0.08 | 0.08 | 91 | 1016.7 |
| 20260830113059 | 17 | 123 | 4.8 | 11.3 | 0.05 | 0.05 | 0.05 | 90 | 1016.6 |
| 20260830111559 | 17 | 106 | 3.2 | 9.7 | 0.03 | 0.03 | 0.03 | 91 | 1016.4 |
| 20260830110057 | 17 | 67 | 3.2 | 8.0 | 0.03 | 0.03 | 0.03 | 90 | 1016.7 |
| 20260830104601 | 17 | 110 | 0.0 | 4.8 | 0.00 | 0.00 | 0.00 | 90 | 1016.8 |
| 20260830103057 | 17 | 106 | 3.2 | 6.4 | 0.00 | 0.00 | 0.00 | 89 | 1016.7 |
| 20260830101605 | 17 | 90 | 3.2 | 9.7 | 0.00 | 0.00 | 0.00 | 89 | 1016.6 |
| 20260830100055 | 17 | 92 | 3.2 | 9.7 | 0.00 | 0.00 | 0.00 | 89 | 1016.5 |
| 20260830094554 | 17 | 84 | 3.2 | 9.7 | 0.00 | 0.00 | 0.00 | 88 | 1016.8 |
| 20260830093053 | 17 | 107 | 3.2 | 6.4 | 0.00 | 0.00 | 0.00 | 88 | 1016.8 |
| 20260830091552 | 17 | 86 | 3.2 | 12.9 | 0.00 | 0.00 | 0.00 | 87 | 1016.9 |
| 20260830084550 | 17 | 78 | 4.8 | 9.7 | 0.00 | 0.00 | 0.00 | 87 | 1016.7 |
| 20260830083056 | 17 | 90 | 6.4 | 9.7 | 0.00 | 0.00 | 0.00 | 87 | 1016.8 |
| 20260830081549 | 17 | 101 | 0.0 | 3.2 | 0.00 | 0.00 | 0.00 | 86 | 1017.2 |
| 20260830080046 | 17 | 101 | 1.6 | 4.8 | 0.00 | 0.00 | 0.00 | 85 | 1017.0 |
| 20260830074549 | 17 | 69 | 3.2 | 9.7 | 0.00 | 0.00 | 0.00 | 85 | 1017.1 |
| 20260830073104 | 17 | 5 | 0.0 | 3.2 | 0.00 | 0.00 | 0.00 | 84 | 1017.4 |
| 20260830071545 | 17 | 5 | 0.0 | 3.2 | 0.00 | 0.00 | 0.00 | 84 | 1017.5 |
| 20260830070042 | 17 | 5 | 0.0 | 3.2 | 0.00 | 0.00 | 0.00 | 85 | 1017.5 |
| 20260830064542 | 17 | 10 | 0.0 | 4.8 | 0.00 | 0.00 | 0.00 | 85 | 1017.4 |
| 20260830063041 | 17 | 21 | 3.2 | 6.4 | 0.00 | 0.00 | 0.00 | 85 | 1017.3 |
| 20260830061542 | 18 | 355 | 1.6 | 4.8 | 0.00 | 0.00 | 0.00 | 85 | 1017.5 |
| 20260830060036 | 18 | 294 | 0.0 | 3.2 | 0.00 | 0.00 | 0.00 | 84 | 1017.6 |
| 20260830054533 | 19 | 282 | 1.6 | 4.8 | 0.00 | 0.00 | 0.00 | 83 | 1017.7 |
| 20260830053031 | 19 | 293 | 1.6 | 6.4 | 0.00 | 0.00 | 0.00 | 82 | 1017.7 |
| 20260830051532 | 19 | 285 | 0.0 | 4.8 | 0.00 | 0.00 | 0.00 | 83 | 1017.7 |
| 20260830050029 | 19 | 169 | 0.0 | 0.0 | 0.00 | 0.00 | 0.00 | 83 | 1017.7 |
| 20260830044526 | 19 | 169 | 0.0 | 0.0 | 0.00 | 0.00 | 0.00 | 83 | 1017.6 |
| 20260830043031 | 19 | 169 | 0.0 | 0.0 | 0.00 | 0.00 | 0.00 | 83 | 1017.4 |
| 20260830041523 | 19 | 169 | 0.0 | 0.0 | 0.00 | 0.00 | 0.00 | 82 | 1017.3 |
| 20260830040020 | 19 | 169 | 0.0 | 0.0 | 0.00 | 0.00 | 0.00 | 83 | 1017.3 |
| 20260830034518 | 19 | 169 | 0.0 | 1.6 | 0.00 | 0.00 | 0.00 | 83 | 1017.1 |
| 20260830033018 | 20 | 169 | 0.0 | 3.2 | 0.00 | 0.00 | 0.00 | 82 | 1017.0 |
| 20260830031518 | 19 | 202 | 0.0 | 0.0 | 0.00 | 0.00 | 0.00 | 83 | 1017.1 |
| 20260830030021 | 20 | 202 | 0.0 | 0.0 | 0.00 | 0.00 | 0.00 | 82 | 1017.1 |